Flag for USA

Past Weather in Woodbridge Street Historic District, Massachusetts, USA — Yesterday and Last 2 Weeks

Now
60 °F

Passing clouds.


Feels Like: 60 °F
Forecast: 60 / 40 °F
Wind: 5 mph from Northeast

Location: Chicopee Falls / Westover Air Force Base
Current Time: Sep 19, 2020 at 7:08:29 pm
Latest Report: Sep 19, 2020 at 5:56 pm
Visibility: 10 mi
Pressure30.32 "Hg
Humidity: 30%
Dew Point: 29 °F
Location of Woodbridge Street Historic DistrictLocation

Past Weather in Woodbridge Street Historic District — Graph

°F

Woodbridge Street Historic District Temperature Yesterday

Maximum temperature yesterday: 67 °F (at 4:56 pm)
Minimum temperature yesterday: 49 °F (at 11:56 pm)
Average temperature yesterday: 58 °F

High & Low Weather Summary for the Past Weeks

 TemperatureHumidityPressure
High86 °F (Sep 8, 4:56 pm)100% (Sep 7, 3:41 am)30.39 "Hg (Sep 7, 3:41 am)
Low35 °F (Sep 19, 5:56 am)24% (Sep 19, 2:56 pm)29.91 "Hg (Sep 4, 5:56 pm)
Average64 °F74%30.17 "Hg
* Reported Sep 4 5:56 pm — Sep 19 5:56 pm, Woodbridge Street Historic District. Weather by CustomWeather, © 2020

Note: Actual official high and low records may vary slightly from our data, if they occured in-between our weather recording intervals... More about our weather records

Woodbridge Street Historic District Weather History for the Previous 24 Hours

Scroll right to see more
 ConditionsComfort  
Time TempWeatherWind HumidityBarometerVisibility
5:56 pm
Sat, Sep 19
60 °FPassing clouds.5 mph30%30.32 "Hg10 mi
4:56 pm61 °FPassing clouds.7 mph27%30.31 "Hg10 mi
3:56 pm62 °FPassing clouds.9 mph26%30.31 "Hg10 mi
2:56 pm61 °FPassing clouds.13 mph24%30.32 "Hg10 mi
1:56 pm60 °FPassing clouds.14 mph26%30.33 "Hg10 mi
12:56 pm60 °FPassing clouds.14 mph30%30.34 "Hg10 mi
11:56 am58 °FPassing clouds.14 mph31%30.34 "Hg10 mi
10:56 am56 °FPassing clouds.12 mph36%30.35 "Hg10 mi
9:56 am53 °FPassing clouds.12 mph43%30.35 "Hg10 mi
8:56 am48 °FPassing clouds.13 mph50%30.34 "Hg10 mi
7:56 am42 °FSunny.3 mph73%30.33 "Hg10 mi
6:56 am37 °FSunny.No wind81%30.30 "Hg10 mi
5:56 am35 °FClear.No wind87%30.27 "Hg10 mi
4:56 am36 °FClear.No wind83%30.25 "Hg10 mi
3:56 am40 °FClear.No wind65%30.23 "Hg10 mi
2:56 am43 °FClear.6 mph60%30.22 "Hg10 mi
1:56 am45 °FClear.5 mph54%30.21 "Hg10 mi
12:56 am47 °FClear.9 mph52%30.20 "Hg10 mi
11:56 pm
Fri, Sep 18
49 °FClear.8 mph48%30.18 "Hg10 mi
10:56 pm51 °FClear.12 mph45%30.17 "Hg10 mi
9:56 pm53 °FClear.17 mph44%30.14 "Hg10 mi
8:56 pm55 °FClear.21 mph42%30.11 "Hg10 mi
7:56 pm58 °FClear.17 mph42%30.07 "Hg10 mi
Weather by CustomWeather, © 2020

See weather overview